BEIDOU-3 M12 (C26)

Last updated on Wed Aug 26 2026 00:04:16 GMT+0000 (Coordinated Universal Time)

1 43602U 18067A 26237.17660141 -.00000009 00000+0 00000+0 0 9991 2 43602 54.1804 178.7015 0008465 33.5904 326.4326 1.86227711 54409
UTC large
Height (km)
Speed (km/s)
/
Latitude / Longitude
Inclination (degrees)
Orbital Period (minutes)
Azimuth
Elevation
Range (km)
Doppler Factor

Next 0 passes for location: London (51.5072 / 0.1276)

No passes found over London.
BEIDOU-3 M12 (C26)